Regional Weather Roundup
Issued by NWS

Home | Current Version | Previous Version | Graphics & Text | Print | Product List | Glossary Off
Versions: 1 2 3 4 5 6 7 8 9 10 11 12 13 14 15 16 17 18 19 20 21 22 23 24 25 26 27 28 29 30 31 32 33 34 35 36 37 38 39 40 41 42 43 44 45 46 47 48 49 50

000
ASUS43 KTOP 191608
RWRKS

WEATHER ROUNDUP FOR KANSAS
NATIONAL WEATHER SERVICE GOODLAND KS
1100 AM CDT TUE SEP 19 2017

NOTE:  "FAIR" INDICATES FEW OR NO CLOUDS BELOW 12,000 FEET WITH NO
SIGNIFICANT WEATHER AND/OR OBSTRUCTIONS TO VISIBILITY.

KSZ001>006-013>018-027>032-041>047-191700-
NORTHWEST KANSAS

CITY           SKY/WX    TMP DP  RH WIND       PRES   REMARKS
GOODLAND       SUNNY     74  48  39 S12       29.69F
HAYS           SUNNY     81  63  54 S24G30    29.70F
HILL CITY      SUNNY     79  63  57 SW12      29.69F
RUSSELL        SUNNY     82  63  52 S24G30    29.70F
$$

KSZ061>065-074>080-084>089-191700-
SOUTHWEST KANSAS

CITY           SKY/WX    TMP DP  RH WIND       PRES   REMARKS
DODGE CITY     SUNNY     81  61  50 S23G31    29.75F
ELKHART          N/A     80  47  31 SW9         N/A
GARDEN CITY    SUNNY     80  57  45 S17       29.73F
GREAT BEND     SUNNY     83  64  52 S26       29.73F
LIBERAL        SUNNY     78  59  51 S18       29.78F
PRATT          SUNNY     80  63  55 S20G26    29.77F
$$

KSZ066>073-081>083-090>101-191700-
SOUTHEAST KANSAS

CITY           SKY/WX    TMP DP  RH WIND       PRES   REMARKS
CHANUTE        SUNNY     81  69  67 S12       29.89S
COFFEYVILLE    PTSUNNY   79  68  69 S9        29.88F
HUTCHINSON     SUNNY     83  68  60 S22G30    29.77F
MEDICINE LODGE   N/A     79  66  64 S13       29.77F
NEWTON         SUNNY     83  69  62 S22G30    29.80F
WICHITA INTL   MOSUNNY   85  69  58 S23G29    29.80F
WICHITA JABRA  SUNNY     83  69  62 S23G31    29.80F
WICHITA MCCONL SUNNY     83  67  58 S23       29.81F
WINFIELD       SUNNY     83  71  67 S20       29.83F
$$

KSZ007>012-019>026-033>040-048>060-102>105-191700-
NORTHEAST KANSAS

CITY           SKY/WX    TMP DP  RH WIND       PRES   REMARKS
CONCORDIA      SUNNY     80  67  64 S24G31    29.72F
EMPORIA        SUNNY     81  68  64 S22G31    29.82F
LAWRENCE       SUNNY     79  69  71 SE14      29.86F
MANHATTAN      SUNNY     85  67  54 S15G24    29.77F
MARYSVILLE     SUNNY     82  66  57 S15       29.77F
OLATHE IND     SUNNY     77  68  73 SE12      29.89F
OLATHE EXE     SUNNY     76  70  82 SE10      29.89F
SALINA         SUNNY     85  67  54 S21G28    29.74F
TOPEKA BILLARD PTSUNNY   80  70  71 S8        29.83F
TOPEKA FORBES  MOSUNNY   81  69  67 S13       29.85F
$$




USA.gov is the U.S. government's official web portal to all federal, state and local government web resources and services.